Location: Namasale
(1.5000°N, 32.6167°E)
Time: 02:39:52
(UTC+00:00)

Hubble Space Telescope - Pass Details

Date: 12 December 2021
Orbit: 535 x 538 km, 28.5° (Epoch: 24 January)

Event Time Altitude Azimuth Distance (km) Brightness Sun altitude
Exits shadow 02:09:42 81° 324° (NW) 539 0.5 -22.0°
Maximum altitude 02:09:52 86° 26° (NNE) 534 0.6 -22.0°
Drops below altitude 10° 02:13:59 10° 119° (ESE) 1,773 4.6 -21.0°
Sets 02:16:15 0° 120° (ESE) 2,664 5.9 -20.5°
